Flag for Tunisia Weather for the Past 2 Weeks in Houmt Souk (Djerba), Tunisia

Now
64 °F

Passing clouds.


Feels Like: 64 °F
Forecast: 62 / 74 °F
Wind: 3 mph from Northeast

Location: Djerba Mellita

Current Time: May 3, 2016 at 12:17:19 AM

Latest Report: May 2, 2016 at 11:00 PM


Visibility: N/A

Pressure: 30.07 "Hg

Humidity: 46%

Dew Point: 43 °F

Location of Houmt Souk (Djerba)Location

Historic Weather in Houmt Souk (Djerba) — Graph

°F

Houmt Souk (Djerba) Temperature Yesterday

Maximum temperature yesterday: 72 °F (at 4:00 PM)
Minimum temperature yesterday: 57 °F (at 2:00 AM)
Average temperature yesterday: 65 °F

High & Low Weather Summary for the Past Weeks

 TemperatureHumidityPressure
High84 °F (Apr 27, 2:00 PM)94% (Apr 21, 12:30 AM)30.12 "Hg (Apr 21, 12:30 AM)
Low57 °F (May 2, 2:00 AM)26% (Apr 27, 10:30 AM)29.62 "Hg (Apr 28, 4:30 PM)
Average68 °F68%29.91 "Hg
* Reported Apr 17 10:00 PM — May 2 10:30 PM, Houmt Souk (Djerba), Weather by CustomWeather, © 2016

Note: Actual official high and low records may vary slightly from our data, if they occured in-between our weather recording intervals... More about our weather records

Advertising

Houmt Souk (Djerba) Weather History for the Previous 24 Hours

Scroll right to see more
 ConditionsComfort  
Time TempWeatherWind HumidityBarometerVisibility
10:30 PM
Mon, May 2
64 °FPassing clouds.5 mph46%30.07 "HgN/A
10:00 PM66 °FPassing clouds.7 mph43%30.07 "HgN/A
9:30 PM64 °FPassing clouds.7 mph43%30.04 "HgN/A
9:00 PM66 °FPassing clouds.10 mph37%30.04 "HgN/A
8:30 PM66 °FPassing clouds.15 mph40%30.04 "HgN/A
8:00 PM66 °FPassing clouds.17 mph40%30.01 "HgN/A
7:30 PM68 °FPassing clouds.17 mph40%30.01 "HgN/A
7:00 PM68 °FPassing clouds.17 mph38%29.98 "HgN/A
6:30 PM70 °FPassing clouds.13 mph33%29.98 "HgN/A
6:00 PM72 °FPassing clouds.14 mph36%29.98 "HgN/A
5:30 PM72 °FPassing clouds.13 mph33%29.95 "HgN/A
5:00 PM72 °FPassing clouds.8 mph36%29.95 "HgN/A
4:30 PM72 °FPassing clouds.8 mph33%29.95 "HgN/A
4:00 PM72 °FPassing clouds.9 mph33%29.98 "HgN/A
3:30 PM70 °FPassing clouds.12 mph38%29.98 "HgN/A
3:00 PM70 °FPassing clouds.10 mph33%29.98 "HgN/A
2:30 PM70 °FPassing clouds.10 mph35%29.98 "HgN/A
2:00 PM68 °FPassing clouds.8 mph35%30.01 "HgN/A
1:30 PM66 °FPassing clouds.13 mph37%30.01 "HgN/A
1:00 PM66 °FPassing clouds.14 mph40%30.01 "HgN/A
12:00 PM64 °FPassing clouds.9 mph40%30.04 "HgN/A
11:00 AM64 °FPassing clouds.12 mph37%30.04 "HgN/A
10:30 AM64 °FPassing clouds.12 mph37%30.04 "HgN/A
10:00 AM63 °FPassing clouds.9 mph42%30.04 "HgN/A
9:30 AM63 °FPassing clouds.9 mph42%30.04 "HgN/A
8:00 AM61 °FPassing clouds.9 mph48%30.04 "HgN/A
7:30 AM61 °FScattered clouds.10 mph45%30.04 "HgN/A
7:00 AM59 °FScattered clouds.9 mph55%30.04 "HgN/A
6:00 AM57 °FScattered clouds.12 mph59%30.04 "Hg4 mi
5:30 AM57 °FScattered clouds.15 mph63%30.01 "Hg3 mi
5:00 AM57 °FPassing clouds.17 mph59%30.01 "Hg3 mi
3:00 AM57 °FPassing clouds.23 mph63%30.01 "Hg3 mi
2:00 AM57 °FPassing clouds.24 mph67%30.01 "Hg3 mi
1:30 AM59 °FPassing clouds.28 mph68%30.01 "Hg3 mi
12:30 AM59 °FPassing clouds.30 mph77%30.01 "Hg3 mi
12:00 AM66 °FPassing clouds.14 mph56%30.01 "Hg4 mi
Weather by CustomWeather, © 2016

See weather overviewHow to use our weather pages